TimeCST,TemperatureF,Dew PointF,Humidity,Sea Level PressureIn,VisibilityMPH,Wind Direction,Wind SpeedMPH,Gust SpeedMPH,PrecipitationIn,Events,Conditions,WindDirDegrees,DateUTC
12:55 AM,40.3,21.6,47,30.22,10.0,NNW,6.9,-,N/A,,Clear,340,2013-02-28 06:55:00
1:55 AM,43.2,19.9,40,30.23,10.0,North,5.8,-,N/A,,Mostly Cloudy,360,2013-02-28 07:55:00
2:55 AM,43.2,21.9,43,30.22,10.0,North,5.8,-,N/A,,Overcast,360,2013-02-28 08:55:00
3:55 AM,45.0,23.7,43,30.24,10.0,North,8.1,-,N/A,,Overcast,10,2013-02-28 09:55:00
4:55 AM,45.0,26.4,48,30.25,10.0,NNE,3.5,-,N/A,,Overcast,20,2013-02-28 10:55:00
5:55 AM,44.4,26.8,50,30.27,10.0,North,4.6,-,N/A,,Overcast,360,2013-02-28 11:55:00
6:55 AM,44.2,27.1,51,30.30,10.0,NNE,3.5,-,N/A,,Overcast,30,2013-02-28 12:55:00
7:55 AM,45.1,26.8,49,30.32,10.0,North,9.2,-,N/A,,Mostly Cloudy,360,2013-02-28 13:55:00
8:55 AM,46.0,26.6,47,30.33,10.0,North,11.5,-,N/A,,Overcast,360,2013-02-28 14:55:00
9:55 AM,48.7,27.0,43,30.33,10.0,North,11.5,-,N/A,,Mostly Cloudy,360,2013-02-28 15:55:00
10:55 AM,51.4,26.8,38,30.33,10.0,North,12.7,19.6,N/A,,Mostly Cloudy,350,2013-02-28 16:55:00
11:55 AM,54.5,26.8,34,30.30,10.0,North,18.4,23.0,N/A,,Mostly Cloudy,360,2013-02-28 17:55:00
12:55 PM,56.8,24.4,29,30.27,10.0,North,11.5,-,N/A,,Mostly Cloudy,350,2013-02-28 18:55:00
1:58 PM,59.2,22.8,25,30.22,10.0,NNE,8.1,18.4,N/A,,Mostly Cloudy,20,2013-02-28 19:58:00
2:45 PM,-9999,-9999,N/A,-9999,-9999.0,North,8.1,-,N/A,,Unknown,10,2013-02-28 20:45:00
2:46 PM,59.0,24.8,27,30.21,10.0,North,9.2,-,N/A,,Mostly Cloudy,10,2013-02-28 20:46:00
2:48 PM,59.0,24.8,27,30.21,10.0,North,10.4,-,N/A,,Mostly Cloudy,10,2013-02-28 20:48:00
2:58 PM,59.0,23.0,25,30.20,10.0,NNW,11.5,-,N/A,,Partly Cloudy,330,2013-02-28 20:58:00
3:58 PM,62.4,20.7,20,30.20,10.0,NNW,13.8,-,N/A,,Clear,340,2013-02-28 21:58:00
4:58 PM,61.2,20.1,21,30.19,10.0,North,10.4,-,N/A,,Scattered Clouds,350,2013-02-28 22:58:00
5:58 PM,59.4,19.8,22,30.21,10.0,North,10.4,-,N/A,,Mostly Cloudy,360,2013-02-28 23:58:00
6:58 PM,55.8,20.7,26,30.22,10.0,North,3.5,-,N/A,,Mostly Cloudy,10,2013-03-01 00:58:00
7:58 PM,53.8,20.8,28,30.23,10.0,NNW,3.5,-,N/A,,Clear,340,2013-03-01 01:58:00
8:58 PM,47.7,22.8,38,30.25,10.0,North,3.5,-,N/A,,Clear,360,2013-03-01 02:58:00
9:58 PM,43.5,23.5,45,30.25,10.0,NNW,6.9,-,N/A,,Clear,330,2013-03-01 03:58:00
10:58 PM,39.7,24.8,55,30.25,10.0,NNW,8.1,-,N/A,,Clear,330,2013-03-01 04:58:00
11:55 PM,37.4,24.8,60,30.25,10.0,NW,8.1,-,N/A,,Clear,320,2013-03-01 05:55:00
11:58 PM,38.3,24.4,57,30.24,10.0,NW,8.1,-,N/A,,Clear,320,2013-03-01 05:58:00